{"data":{"norad_id":59751,"intl_designator":"2024-090X","name":"STARLINK-31808","alt_names":[],"object_type":"PAYLOAD","status":"ACTIVE","operator":null,"country":"US","launch_date":"2024-05-13","launch_site_code":"AFETR","launch_vehicle":null,"mission":null,"orbit_class":"UNKNOWN","rcs_meters":null,"size_class":null,"mass_kg":null,"dimensions":null,"purposes":["comms"],"wikipedia_slug":null,"has_3d_model":false,"image_url":null,"decayed_at":null,"tle_current":{"epoch":"2026-05-25T04:24:29.564064Z","epoch_age_seconds":65926,"freshness":"FRESH","line1":"1 59751U 24090X   26145.18367551  .00001193  00000+0  52859-4 0  9992","line2":"2 59751  43.0019 111.0857 0000953 263.6959  96.3784 15.27578952115135","mean_motion":15.27578952,"eccentricity":9.53e-5,"inclination_deg":43.0019,"raan_deg":111.0857,"arg_perigee_deg":263.6959,"mean_anomaly_deg":96.3784,"bstar":5.2859e-5,"rev_number":11513,"period_min":94.26681338563,"perigee_km":482.39836279645,"apogee_km":483.70610546448,"semimajor_km":6861.1892341305,"source":"CELESTRAK","updated_at":"2026-05-25T13:38:19.055103Z"}}}